FENGYUN 1C DEB, 29939

Orbit data source: Space-Track

FENGYUN 1C DEB, 29939 is space debris in SSO originally from a launch on Mon, 10 May 1999 UTC launched from the Taiyaun Space Center, China (TSC). Fengyun 1C debris stems from the Chinese weather satellite Fengyun-1C, which was intentionally destroyed by a Chinese anti-satellite missile in 2007. This event dramatically increased the amount of space debris, with thousands of trackable fragments posing hazards to satellites and human spaceflight. The Fengyun 1C debris cloud has become a focal point in discussions about space sustainability and the need for international regulations to prevent the creation of new debris.

Loading next visibility...
Identifier
29939, 1999-025JM
Orbit
SSO
Country
Flag of CNCN / PRC
Related business
Manufacturer
Unknown
Mission
Spacecraft
Bus & Motor
Unknown
Mass
Unknown
Launch date (UTC)
1999-05-10 (27 years ago)
Launch vehicle
Unknown
Launch site
Taiyaun Space Center, China (TSC)
Object type
Payload
Rocket body
Debris
Shape & HBR
Unknown shape, 0.2 m
Radar Cross Section
Medium (>0.1 m² and <1 m²)

Expand to show TLE details & history
Last TLE update: 7 hours ago

TLE from 7 hours ago
0 FENGYUN 1C DEB
1 29939U 99025JM  26106.27104289  .00000016  00000-0  31094-4 0  9993
2 29939  98.7152 107.3624 0066890 144.3335 232.3690 14.12116330992187
Epoch: 2026-04-16T06:30Z
TLE epoch observation values (Epoch: 2026-04-16T06:30:18.105Z)
Latitude
15.8883°
Longitude
162.87835°
Altitude
884.109 km
Speed
7.396 km/s
True Right ascension
06h 59m 29s
True Declination
15° 47' 58"
Sunlit
Object was in daylight at epoch
Visualization orbit readout
Latitude
Unknown
Longitude
Unknown
Altitude
Unknown
Speed
Unknown
Apparent Right ascension
Unknown
Apparent Declination
Unknown
Sunlit
N/A
Visualization observer readout
Local Sidereal Time
19:52:50
Azimuth
Unknown
Elevation
Unknown
Doppler factor
Unknown
Orbital elements
Apogee altitude
897.652 km
Perigee altitude
800.964 km
Semi-major axis
7,227.445 km
Eccentricity
0.00669
Inclination
98.7152°
RAAN
107.3624°
Arg. of periapsis
144.3335°
True anomaly
231.76506°
Mean anomaly
232.369°
Eccentric anomaly
232.06672°
Mean motion
3.53237 °/min
Orbital period
101.91 mins
BSTAR
0.000031094
Loading maneuver chart data...
Computing Atmospheric mass density...
Loading historical data...
Loading historical data...
Loading historical data...
Loading historical data...
Loading historical data...
Loading historical data...
Loading historical data...

Documentation

Showing up to 5 results
|